EW3649 Weather Reports


time (UTC)temp
C
wind
direction
speed
KPH
gust
KPH
rain 1hr
cm
rain 24hr
cm
rain mn
cm
humidity
%
barometer
mb
20260507060505 11 0 0.0 0.0 0.00 0.00 0.00 85 1020.8
20260507060005 11 0 0.0 0.0 0.00 0.00 0.00 85 1020.8
20260507054505 11 0 0.0 0.0 0.00 0.00 0.00 85 1020.8
20260507054005 12 0 0.0 0.0 0.00 0.00 0.00 85 1020.8
20260507053505 12 0 0.0 0.0 0.00 0.00 0.00 84 1020.8
20260507052505 12 265 0.0 3.2 0.00 0.00 0.00 84 1020.8
20260507052005 12 265 0.0 3.2 0.00 0.00 0.00 83 1020.7
20260507051505 12 0 0.0 0.0 0.00 0.00 0.00 83 1020.8
20260507051006 12 265 0.0 3.2 0.00 0.00 0.00 82 1020.8
20260507045505 12 0 0.0 0.0 0.00 0.00 0.00 82 1020.9
20260507045006 12 0 0.0 0.0 0.00 0.00 0.00 82 1020.8
20260507044505 12 0 0.0 0.0 0.00 0.00 0.00 82 1020.8
20260507043505 12 0 0.0 0.0 0.00 0.00 0.00 81 1020.7
20260507042505 12 0 0.0 0.0 0.00 0.00 0.00 81 1020.6
20260507042006 12 0 0.0 0.0 0.00 0.00 0.00 81 1020.7
20260507041505 12 0 0.0 0.0 0.00 0.00 0.00 80 1020.7
20260507041006 12 0 0.0 0.0 0.00 0.00 0.00 80 1020.7
20260507040005 12 265 0.0 1.6 0.00 0.00 0.00 80 1020.6
20260507035504 12 265 0.0 4.8 0.00 0.00 0.00 80 1020.6
20260507035007 12 265 0.0 4.8 0.00 0.00 0.00 80 1020.6
20260507034505 12 265 0.0 4.8 0.00 0.00 0.00 79 1020.4
20260507034005 12 0 0.0 0.0 0.00 0.00 0.00 80 1020.5
20260507033505 12 0 0.0 0.0 0.00 0.00 0.00 80 1020.4
20260507033006 12 0 0.0 0.0 0.00 0.00 0.00 80 1020.3
20260507032504 12 0 0.0 0.0 0.00 0.00 0.00 79 1020.4
20260507032005 12 0 0.0 0.0 0.00 0.00 0.00 79 1020.3
20260507031006 13 265 0.0 4.8 0.00 0.00 0.00 79 1020.2
20260507030005 13 265 0.0 6.4 0.00 0.00 0.00 79 1020.1
20260507025504 13 0 0.0 0.0 0.00 0.00 0.00 79 1020.1
20260507025005 13 0 0.0 0.0 0.00 0.00 0.00 78 1020.1
20260507024505 13 0 0.0 0.0 0.00 0.00 0.00 78 1020.1
20260507023505 13 266 0.0 3.2 0.00 0.00 0.00 78 1019.9
20260507023004 13 266 0.0 4.8 0.00 0.00 0.00 78 1019.9
20260507022505 13 266 0.0 6.4 0.00 0.00 0.00 78 1019.9
20260507022005 13 266 0.0 6.4 0.00 0.00 0.00 78 1019.9
20260507021505 13 0 0.0 0.0 0.00 0.00 0.00 79 1019.9
20260507020504 13 267 0.0 1.6 0.00 0.00 0.00 79 1020.0
20260507015504 13 0 0.0 0.0 0.00 0.00 0.00 79 1020.0
20260507015006 13 0 0.0 0.0 0.00 0.00 0.00 79 1019.9
20260507014505 13 267 0.0 1.6 0.00 0.00 0.00 80 1019.9
20260507014005 13 267 0.0 1.6 0.00 0.00 0.00 80 1019.9
20260507013505 13 0 0.0 0.0 0.00 0.00 0.00 79 1019.9
20260507013006 13 0 0.0 0.0 0.00 0.00 0.00 79 1019.9
20260507012005 13 0 0.0 0.0 0.00 0.00 0.00 78 1020.0
20260507010504 13 0 0.0 0.0 0.00 0.00 0.00 77 1020.0
20260507010006 13 0 0.0 0.0 0.00 0.00 0.00 77 1020.0
20260507005505 13 0 0.0 0.0 0.00 0.00 0.00 77 1020.0
20260507005005 13 0 0.0 0.0 0.00 0.00 0.00 77 1020.1
20260507004504 13 0 0.0 0.0 0.00 0.00 0.00 78 1020.1
20260507004005 13 0 0.0 0.0 0.00 0.00 0.00 79 1020.1
20260507003504 13 267 0.0 4.8 0.00 0.00 0.00 78 1020.1
20260507003006 13 267 0.0 4.8 0.00 0.00 0.00 77 1020.2
20260507002504 13 0 0.0 0.0 0.00 0.00 0.00 77 1020.1
20260507002006 13 0 0.0 0.0 0.00 0.00 0.00 77 1020.2
20260507001505 13 0 0.0 0.0 0.00 0.00 0.00 77 1020.2
20260507000505 13 266 0.0 1.6 0.00 0.00 0.00 77 1020.1
20260507000005 13 266 0.0 4.8 0.00 0.00 0.00 77 1020.2
20260506235505 13 266 0.0 4.8 0.00 0.00 0.00 78 1020.1
20260506235005 13 0 0.0 0.0 0.00 0.00 0.00 78 1020.2
20260506234504 13 0 0.0 0.0 0.00 0.00 0.00 78 1020.1
20260506234004 13 0 0.0 0.0 0.00 0.00 0.00 79 1020.1
20260506233505 13 0 0.0 0.0 0.00 0.00 0.00 78 1020.2
20260506233006 13 0 0.0 0.0 0.00 0.00 0.00 78 1020.2
20260506232504 13 0 0.0 0.0 0.00 0.00 0.00 78 1020.2
20260506231505 13 0 0.0 0.0 0.00 0.00 0.00 78 1020.3
20260506230005 13 0 0.0 0.0 0.00 0.00 0.00 78 1020.2
20260506225504 13 0 0.0 0.0 0.00 0.00 0.00 78 1020.3
20260506225006 13 0 0.0 0.0 0.00 0.00 0.00 78 1020.3
20260506224504 13 0 0.0 0.0 0.00 0.00 0.00 79 1020.3
20260506224006 13 0 0.0 0.0 0.00 0.00 0.00 79 1020.3
20260506222505 13 0 0.0 0.0 0.00 0.00 0.00 79 1020.5
20260506222005 13 269 0.0 1.6 0.00 0.00 0.00 78 1020.6
20260506221505 13 269 0.0 1.6 0.00 0.00 0.00 78 1020.6
20260506220505 13 0 0.0 0.0 0.00 0.00 0.00 78 1020.6
20260506220004 13 269 0.0 4.8 0.00 0.00 0.00 78 1020.5
20260506215505 13 269 0.0 4.8 0.00 0.00 0.00 78 1020.6
20260506215006 13 270 0.0 4.8 0.00 0.00 0.00 78 1020.6
20260506214504 13 0 0.0 0.0 0.00 0.00 0.00 79 1020.5
20260506214005 13 0 0.0 0.0 0.00 0.00 0.00 80 1020.5
20260506213504 13 0 0.0 0.0 0.00 0.00 0.00 79 1020.5
20260506213005 13 270 0.0 3.2 0.00 0.00 0.00 79 1020.5
20260506211504 13 0 0.0 0.0 0.00 0.00 0.00 80 1020.5
20260506211005 13 0 0.0 0.0 0.00 0.00 0.00 80 1020.5
20260506210504 13 0 0.0 0.0 0.00 0.00 0.00 80 1020.5
20260506210005 12 0 0.0 0.0 0.00 0.00 0.00 80 1020.5
20260506205504 12 0 0.0 0.0 0.00 0.00 0.00 80 1020.5
20260506205005 13 0 0.0 0.0 0.00 0.00 0.00 80 1020.5
20260506204505 13 0 0.0 0.0 0.00 0.00 0.00 82 1020.4
20260506204005 13 0 0.0 0.0 0.00 0.00 0.00 82 1020.5
20260506203504 13 0 0.0 0.0 0.00 0.00 0.00 82 1020.4
20260506203006 12 0 0.0 0.0 0.00 0.00 0.00 82 1020.3
20260506202504 12 0 0.0 0.0 0.00 0.00 0.00 82 1020.3
20260506202006 12 0 0.0 0.0 0.00 0.00 0.00 82 1020.3
20260506201504 12 0 0.0 0.0 0.00 0.00 0.00 83 1020.3
20260506201005 12 0 0.0 0.0 0.00 0.00 0.00 82 1020.3
20260506200504 12 0 0.0 0.0 0.00 0.00 0.00 83 1020.3
20260506200006 12 0 0.0 0.0 0.00 0.00 0.00 83 1020.3
20260506195504 12 0 0.0 0.0 0.00 0.00 0.00 82 1020.3
20260506194504 12 0 0.0 0.0 0.00 0.00 0.00 82 1020.3
20260506194004 12 0 0.0 0.0 0.00 0.00 0.00 82 1020.2
20260506193505 12 0 0.0 0.0 0.00 0.00 0.00 83 1020.2
20260506192504 13 0 0.0 0.0 0.00 0.00 0.00 83 1020.1
20260506191505 12 0 0.0 0.0 0.00 0.00 0.00 84 1020.1
20260506191005 12 0 0.0 0.0 0.00 0.00 0.00 84 1020.2
20260506185504 13 269 0.0 4.8 0.00 0.00 0.00 83 1020.1
20260506184504 13 269 0.0 1.6 0.00 0.00 0.00 83 1020.2
20260506184006 13 269 0.0 1.6 0.00 0.00 0.00 82 1020.2
20260506183504 13 269 0.0 3.2 0.00 0.00 0.00 82 1020.1
20260506183006 13 269 0.0 4.8 0.00 0.00 0.00 82 1020.1
20260506182504 13 269 0.0 4.8 0.00 0.00 0.00 83 1019.8
20260506182006 13 0 0.0 0.0 0.00 0.00 0.00 83 1019.8
20260506181505 13 270 0.0 4.8 0.00 0.00 0.00 84 1019.8
20260506181005 12 270 0.0 4.8 0.00 0.00 0.00 84 1019.9
20260506180504 12 0 0.0 0.0 0.00 0.00 0.00 84 1019.9
20260506175504 12 271 0.0 6.4 0.00 0.00 0.00 84 1019.9
20260506174504 12 274 0.0 1.6 0.00 0.00 0.00 86 1020.1
20260506174005 12 274 0.0 3.2 0.00 0.00 0.00 85 1020.0
20260506173504 12 275 0.0 3.2 0.00 0.00 0.00 85 1020.0
20260506173005 12 275 0.0 3.2 0.00 0.00 0.00 85 1020.0
20260506172006 12 275 0.0 3.2 0.00 0.00 0.00 86 1020.0
20260506171505 12 277 0.0 6.4 0.00 0.00 0.00 87 1019.9
20260506171005 12 278 0.0 6.4 0.00 0.00 0.00 86 1019.9
20260506170505 12 280 0.0 4.8 0.00 0.00 0.00 87 1020.0
20260506170006 12 286 0.0 3.2 0.00 0.00 0.00 87 1019.8
20260506165504 12 287 0.0 3.2 0.00 0.00 0.00 87 1019.8
20260506165005 12 0 0.0 0.0 0.00 0.00 0.00 88 1019.8
20260506164505 12 312 0.0 3.2 0.00 0.00 0.00 88 1019.6
20260506164005 12 313 0.0 3.2 0.00 0.00 0.00 89 1019.4
20260506163504 11 314 0.0 3.2 0.00 0.00 0.00 89 1019.4
20260506162504 11 314 0.0 4.8 0.00 0.00 0.00 90 1019.4
20260506162005 11 314 0.0 4.8 0.00 0.00 0.00 90 1019.3
20260506161503 11 0 0.0 0.0 0.00 0.00 0.00 90 1019.4
20260506161005 11 0 0.0 0.0 0.00 0.00 0.00 90 1019.4
20260506160005 11 314 0.0 1.6 0.00 0.00 0.00 90 1019.7
20260506155504 11 314 0.0 1.6 0.00 0.00 0.00 90 1019.7
20260506155006 11 316 0.0 4.8 0.00 0.00 0.00 90 1019.7
20260506154504 11 316 0.0 4.8 0.00 0.00 0.00 90 1019.7
20260506154006 11 324 0.0 3.2 0.00 0.00 0.00 90 1019.6
20260506153504 11 324 0.0 3.2 0.00 0.00 0.00 91 1019.5
20260506153006 11 0 0.0 0.0 0.00 0.00 0.00 91 1019.4
20260506152504 11 0 0.0 0.0 0.00 0.00 0.00 91 1019.3
20260506152006 11 0 0.0 0.0 0.00 0.00 0.00 91 1019.3
20260506151503 11 0 0.0 0.0 0.00 0.00 0.00 91 1019.5
20260506151005 11 327 0.0 3.2 0.00 0.00 0.00 91 1019.5
20260506150504 11 327 0.0 3.2 0.00 0.00 0.00 90 1019.5
20260506150006 11 327 0.0 1.6 0.00 0.00 0.00 90 1019.5
20260506145504 11 327 0.0 1.6 0.00 0.00 0.00 91 1019.6
20260506145007 11 327 0.0 1.6 0.00 0.00 0.00 91 1019.6
20260506144504 11 326 0.0 3.2 0.00 0.00 0.00 91 1019.4
20260506144005 11 326 0.0 3.2 0.00 0.00 0.00 91 1019.3
20260506143504 11 237 0.0 1.6 0.00 0.00 0.00 91 1019.2
20260506143005 11 196 0.0 1.6 0.00 0.00 0.00 91 1019.0
20260506142504 11 0 0.0 0.0 0.00 0.00 0.00 91 1019.0
20260506142006 11 0 0.0 0.0 0.00 0.00 0.00 91 1019.2
20260506141504 11 0 0.0 0.0 0.00 0.00 0.00 91 1019.2
20260506141006 11 0 0.0 0.0 0.00 0.00 0.00 91 1019.2
20260506140505 11 0 0.0 0.0 0.00 0.00 0.00 91 1019.4
20260506140005 11 0 0.0 0.0 0.00 0.00 0.00 91 1019.1
20260506135504 11 0 0.0 0.0 0.00 0.00 0.00 91 1019.1
20260506135004 11 0 0.0 0.0 0.00 0.00 0.00 91 1019.2
20260506134504 11 0 0.0 0.0 0.00 0.00 0.00 91 1019.2
20260506134005 11 0 0.0 0.0 0.00 0.00 0.00 91 1019.0
20260506133504 11 0 0.0 0.0 0.00 0.00 0.00 92 1019.0
20260506133005 11 0 0.0 0.0 0.00 0.00 0.00 92 1019.1
20260506132505 11 0 0.0 0.0 0.00 0.00 0.00 91 1018.9
20260506132006 11 0 0.0 0.0 0.00 0.00 0.00 91 1018.6
20260506130005 11 0 0.0 0.0 0.00 0.00 0.00 91 1018.8
20260506125504 11 0 0.0 0.0 0.00 0.00 0.00 91 1018.7
20260506125005 11 0 0.0 0.0 0.00 0.00 0.00 91 1018.6
20260506124504 11 0 0.0 0.0 0.00 0.00 0.00 91 1018.6
20260506124006 11 0 0.0 0.0 0.00 0.00 0.00 91 1018.5
20260506123505 11 0 0.0 0.0 0.00 0.00 0.00 91 1018.5
20260506123006 11 0 0.0 0.0 0.00 0.00 0.00 90 1018.4
20260506122504 11 0 0.0 0.0 0.00 0.00 0.00 90 1018.4
20260506122005 11 0 0.0 0.0 0.00 0.00 0.00 90 1018.5
20260506121504 11 0 0.0 0.0 0.00 0.00 0.00 90 1018.4
20260506121005 11 0 0.0 0.0 0.00 0.00 0.00 90 1018.4
20260506120504 11 0 0.0 0.0 0.00 0.00 0.00 90 1018.3
20260506120005 11 0 0.0 0.0 0.00 0.00 0.00 89 1018.2
20260506115504 11 0 0.0 0.0 0.00 0.00 0.00 89 1018.2
20260506114504 12 0 0.0 0.0 0.00 0.00 0.00 88 1018.2
20260506114005 12 0 0.0 0.0 0.00 0.00 0.00 88 1018.3
20260506113504 12 0 0.0 0.0 0.00 0.00 0.00 88 1018.3
20260506113005 12 0 0.0 0.0 0.00 0.00 0.00 87 1018.3
20260506112503 12 0 0.0 0.0 0.00 0.00 0.00 87 1018.3
20260506112006 12 0 0.0 0.0 0.00 0.00 0.00 87 1018.3
20260506111504 12 0 0.0 0.0 0.00 0.00 0.00 86 1018.2
20260506111006 12 194 0.0 1.6 0.00 0.00 0.00 86 1018.1
20260506110504 12 194 0.0 1.6 0.00 0.00 0.00 86 1018.0
20260506110005 12 194 0.0 1.6 0.00 0.00 0.00 86 1018.1
20260506105503 12 0 0.0 0.0 0.00 0.00 0.00 86 1018.0
20260506105005 12 0 0.0 0.0 0.00 0.00 0.00 86 1018.0
20260506104505 12 0 0.0 0.0 0.00 0.00 0.00 86 1018.0
20260506104006 12 0 0.0 0.0 0.00 0.00 0.00 86 1017.9
20260506103503 12 0 0.0 0.0 0.00 0.00 0.00 86 1017.9
20260506103004 12 0 0.0 0.0 0.00 0.00 0.00 86 1017.8
20260506102504 12 0 0.0 0.0 0.00 0.00 0.00 86 1017.8
20260506102005 12 0 0.0 0.0 0.00 0.00 0.00 86 1017.7
20260506101503 12 0 0.0 0.0 0.00 0.00 0.00 85 1017.6
20260506101004 12 0 0.0 0.0 0.00 0.00 0.00 85 1017.6
20260506100503 12 0 0.0 0.0 0.00 0.00 0.00 85 1017.5
20260506100004 12 0 0.0 0.0 0.00 0.00 0.00 85 1017.4
20260506095505 12 0 0.0 0.0 0.00 0.00 0.00 85 1017.5
20260506095005 12 0 0.0 0.0 0.00 0.00 0.00 85 1017.4
20260506094005 12 0 0.0 0.0 0.00 0.00 0.00 85 1017.3
20260506093504 12 0 0.0 0.0 0.00 0.00 0.00 85 1017.3
20260506093005 12 0 0.0 0.0 0.00 0.00 0.00 85 1017.3
20260506092503 12 0 0.0 0.0 0.00 0.00 0.00 85 1017.3
20260506091503 12 0 0.0 0.0 0.00 0.00 0.00 85 1017.2
20260506091005 12 0 0.0 0.0 0.00 0.00 0.00 85 1017.2
20260506090504 12 0 0.0 0.0 0.00 0.00 0.00 85 1017.2
20260506090004 12 0 0.0 0.0 0.00 0.00 0.00 85 1017.1
20260506085503 12 0 0.0 0.0 0.00 0.00 0.00 85 1017.1
20260506085004 12 0 0.0 0.0 0.00 0.00 0.00 85 1017.1
20260506084504 12 0 0.0 0.0 0.00 0.00 0.00 85 1017.0
20260506084004 12 0 0.0 0.0 0.00 0.00 0.00 84 1017.0
20260506083004 12 0 0.0 0.0 0.00 0.00 0.00 85 1017.0
20260506082503 12 0 0.0 0.0 0.00 0.00 0.00 85 1017.0
20260506082004 12 0 0.0 0.0 0.00 0.00 0.00 85 1017.0
20260506081504 12 0 0.0 0.0 0.00 0.00 0.00 85 1017.0
20260506081005 12 194 0.0 1.6 0.00 0.00 0.00 86 1017.0
20260506080504 12 194 0.0 1.6 0.00 0.00 0.00 86 1016.9
20260506073505 12 0 0.0 0.0 0.00 0.00 0.00 88 1016.8
20260506072505 12 0 0.0 0.0 0.00 0.00 0.00 89 1016.8
20260506072006 12 0 0.0 0.0 0.00 0.00 0.00 89 1016.7
20260506071505 12 0 0.0 0.0 0.00 0.00 0.00 89 1016.7
20260506071005 12 0 0.0 0.0 0.00 0.00 0.00 89 1016.7
20260506062006 11 0 0.0 0.0 0.00 0.00 0.00 88 1016.2
20260506061505 11 0 0.0 0.0 0.00 0.00 0.00 88 1016.1
20260506061006 11 0 0.0 0.0 0.00 0.00 0.00 88 1016.0